Flag for Russia Weather past 2 weeks in Penza, Russia

Now
30 °F

Clear.


Feels Like: 18 °F
Forecast: 15 / 26 °F
Wind: 17 mph from Southeast

Location: Saratov / Tsentralny

Current Time: Mar 28, 2015 at 9:09:50 PM

Latest Report: Mar 28, 2015 at 8:30 PM


Visibility: 10 mi

Pressure: 30.72 "Hg

Humidity: 55%

Dew point: 16 °F

Location of PenzaLocation

Historic Weather in Penza — Graph

°F

Penza temperature yesterday

Maximum temperature yesterday: 32 °F (at 12:00 AM)
Minimum temperature yesterday: 25 °F (at 10:00 PM)
Average temperature yesterday: 28 °F

Past Weeks' High & Low Weather Summary

 TemperatureHumidityPressure
High54 °F (Mar 26, 1:00 PM)100% (Mar 23, 12:00 AM)30.83 "Hg (Mar 23, 12:00 AM)
Low-26 °F (Mar 23, 4:00 AM)31% (Mar 15, 3:00 PM)29.62 "Hg (Mar 22, 7:00 PM)
Average34 °F67%30.35 "Hg
* Reported Mar 13 8:00 PM — Mar 28 8:00 PM, Penza, Weather by CustomWeather, © 2015

Note: Actual official high and low records may vary slightly from our data, if they occured in-between our weather recording intervals... More about our weather records

Advertising

Penza weather history for previous 24 hours

 ConditionsComfort  
Time TempWeatherWind HumidityBarometerVisibility
8:00 PM
Sat, Mar 28
30 °FClear.15 mph55%30.72 "Hg10 mi
7:30 PM30 °FClear.15 mph59%30.72 "Hg10 mi
7:00 PM30 °FSunny.15 mph59%30.72 "Hg10 mi
6:30 PM32 °FSunny.13 mph55%30.69 "Hg10 mi
6:00 PM32 °FSunny.15 mph55%30.69 "Hg10 mi
5:30 PM34 °FSunny.15 mph51%30.72 "Hg10 mi
5:00 PM34 °FSunny.20 mph51%30.72 "Hg10 mi
4:30 PM34 °FSunny.17 mph56%30.72 "Hg10 mi
4:00 PM34 °FSunny.20 mph56%30.72 "Hg10 mi
3:30 PM34 °FSunny.20 mph56%30.72 "Hg10 mi
3:00 PM34 °FSunny.20 mph56%30.72 "Hg10 mi
2:30 PM34 °FSunny.20 mph56%30.72 "Hg10 mi
2:00 PM34 °FSunny.22 mph56%30.72 "Hg10 mi
1:30 PM34 °FSunny.20 mph56%30.72 "Hg10 mi
1:00 PM34 °FSunny.20 mph56%30.72 "Hg10 mi
12:30 PM34 °FSunny.20 mph56%30.72 "Hg10 mi
12:00 PM34 °FSunny.20 mph56%30.72 "Hg10 mi
11:30 AM32 °FSunny.17 mph51%30.74 "Hg10 mi
11:00 AM32 °FSunny.17 mph51%30.74 "Hg10 mi
10:30 AM30 °FSunny.15 mph51%30.74 "Hg10 mi
10:00 AM30 °FSunny.15 mph51%30.74 "Hg10 mi
9:30 AM27 °FSunny.15 mph54%30.74 "Hg10 mi
9:00 AM27 °FSunny.15 mph54%30.74 "Hg10 mi
8:30 AM23 °FSunny.13 mph63%30.74 "Hg10 mi
8:00 AM23 °FSunny.13 mph63%30.74 "Hg10 mi
7:30 AM19 °FSunny.13 mph73%30.72 "Hg10 mi
6:30 AM19 °FClear.10 mph73%30.72 "Hg10 mi
6:00 AM19 °FClear.13 mph73%30.72 "Hg10 mi
5:30 AM19 °FClear.13 mph79%30.69 "Hg10 mi
5:00 AM19 °FClear.13 mph79%30.69 "Hg10 mi
4:30 AM21 °FClear.10 mph68%30.69 "Hg10 mi
4:00 AM21 °FClear.10 mph68%30.69 "Hg10 mi
3:30 AM21 °FClear.10 mph68%30.66 "Hg10 mi
3:00 AM21 °FClear.10 mph68%30.66 "Hg10 mi
2:30 AM23 °FClear.13 mph68%30.66 "Hg10 mi
2:00 AM23 °FClear.8 mph68%30.66 "Hg10 mi
1:30 AM23 °FClear.10 mph63%30.66 "Hg10 mi
1:00 AM23 °FClear.15 mph63%30.66 "Hg10 mi
12:30 AM23 °FClear.10 mph68%30.66 "Hg10 mi
12:00 AM23 °FClear.13 mph68%30.66 "Hg10 mi
11:30 PM
Fri, Mar 27
25 °FClear.13 mph63%30.63 "Hg10 mi
11:00 PM25 °FClear.13 mph63%30.63 "Hg10 mi
10:30 PM25 °FClear.13 mph59%30.63 "Hg10 mi
10:00 PM25 °FClear.13 mph59%30.63 "Hg10 mi
9:30 PM27 °FClear.13 mph54%30.60 "Hg10 mi
9:00 PM27 °FClear.13 mph54%30.60 "Hg10 mi
Weather by CustomWeather, © 2015

See weather overviewHow to use our weather pages